Tracking 29799 objects as of 10-Oct-2024
HD Live streaming from Space Station
objects crossing your sky now

BLACK ARROW R/B

Track BLACK ARROW R/B now!
10-day predictions


NORAD ID: 5581
Int'l Code: 1971-093B
Perigee: 533.8 km
Apogee: 1,284.7 km
Inclination: 82.0 °
Period: 103.0 minutes
Semi major axis: 7280 km
RCS: 0.8037 m2 (medium)
Launch date: October 28, 1971
Source: United Kingdom (UK)
Launch site: WOOMERA (WOMRA)

Note: This is a ROCKET BODY
Your satellite tracking list
Your tracking list is empty




NASA's NSSDC Master Catalog

Two Line Element Set (TLE):
1 05581U 71093B   24284.57466639  .00004677  00000-0  10433-2 0  9992
2 05581  82.0391 143.2020 0515685 300.5432  54.5794 13.97598709660647
Source of the keplerian elements: AFSPC